Zapata, TX

6:37 AM CDT on July 26, 2016 (GMT -0500)
Zapata

Weather History for KAPY - November, 2012

Change the Weather History Date:

Sunday, November 11, 2012

  Actual Average (KLRD) Record (KLRD)
Temperature  
Mean Temperature 80 °F 68 °F  
Max Temperature 90 °F 78 °F 95 °F (1906)
Min Temperature 70 °F 57 °F 31 °F (1987)
Degree Days  
Heating Degree Days 0 2  
Month to date heating degree days 19  
Since 1 July heating degree days 31  
Cooling Degree Days 15 5  
Month to date cooling degree days 67  
Year to date cooling degree days 4196  
Growing Degree Days 30 (Base 50)    
Moisture  
Dew Point 61 °F    
Average Humidity 55    
Maximum Humidity 79    
Minimum Humidity 31    
Precipitation  
Precipitation 0.00 in 0.04 in 0.88 in (1957)
Month to date precipitation 0.51  
Year to date precipitation 18.64  
Sea Level Pressure  
Sea Level Pressure 29.87 in    
Wind  
Wind Speed 11 mph (SE)    
Max Wind Speed 18 mph    
Max Gust Speed 30 mph    
Visibility 10 miles    
Events      
T = Trace of Precipitation, MM = Missing Value Source: NWS Daily Summary

Daily Weather History Graph

Daily Weather History Graph

Search for Another Location

Airport or City:

Trip Planner

Search our weather history database for the weather conditions in past years. The results will help you decide how hot, cold, wet, or windy it might be!

Date:

Astronomy

Nov. 11, 2012 Rise Set
Actual Time 6:54 AM CST 5:47 PM CST
Civil Twilight 6:29 AM CST 6:12 PM CST
Nautical Twilight 6:01 AM CST 6:39 PM CST
Astronomical Twilight 5:34 AM CST 7:07 PM CST
Moon 4:21 AM CST (11/11) 4:03 PM CST (11/11)
Length of Visible Light 11h 42m
Length of Day
10h 53m
Waning Crescent, 7% of the Moon is Illuminated
Nov 11
Waning Crescent
Nov 13
New
Nov 20
First Quarter
Nov 28
Full
Dec 6
Last Quarter

Hourly Weather History & Observations

Time (CST) Temp. Heat Index Dew Point Humidity Pressure Visibility Wind Dir Wind Speed Gust Speed Precip Events Conditions
12:15 AM 74.3 °F - 65.8 °F 75% 29.85 in 10.0 mi SE 15.0 mph 26.5 mph N/A   Clear
12:35 AM 74.3 °F - 66.2 °F 76% 29.85 in 10.0 mi SE 16.1 mph 26.5 mph N/A   Clear
12:55 AM 74.1 °F - 66.2 °F 76% 29.84 in 10.0 mi SSE 16.1 mph 25.3 mph N/A   Clear
1:15 AM 73.8 °F - 66.0 °F 77% 29.82 in 10.0 mi SE 13.8 mph 23.0 mph N/A   Clear
1:35 AM 73.9 °F - 66.2 °F 77% 29.82 in 10.0 mi SSE 16.1 mph 29.9 mph N/A   Clear
1:55 AM 73.9 °F - 66.2 °F 77% 29.81 in 10.0 mi SE 13.8 mph 26.5 mph N/A   Clear
2:15 AM 73.8 °F - 65.8 °F 76% 29.81 in 10.0 mi SSE 13.8 mph 25.3 mph N/A   Clear
2:35 AM 73.6 °F - 65.7 °F 76% 29.80 in 10.0 mi SSE 12.7 mph 23.0 mph N/A   Clear
2:55 AM 73.4 °F - 65.5 °F 76% 29.80 in 10.0 mi SE 15.0 mph 23.0 mph N/A   Clear
3:15 AM 73.4 °F - 65.3 °F 76% 29.79 in 10.0 mi SSE 18.4 mph 23.0 mph N/A   Clear
3:35 AM 73.0 °F - 64.8 °F 75% 29.79 in 10.0 mi SSE 15.0 mph 21.9 mph N/A   Clear
3:55 AM 72.7 °F - 64.6 °F 76% 29.79 in 10.0 mi SSE 12.7 mph 21.9 mph N/A   Clear
4:15 AM 72.5 °F - 64.6 °F 76% 29.79 in 10.0 mi SSE 12.7 mph 21.9 mph N/A   Clear
4:35 AM 72.5 °F - 64.6 °F 76% 29.80 in 10.0 mi SSE 12.7 mph 16.1 mph N/A   Clear
4:55 AM 72.5 °F - 64.4 °F 76% 29.80 in 10.0 mi SSE 13.8 mph 17.3 mph N/A   Clear
5:35 AM 71.8 °F - 64.4 °F 77% 29.81 in 10.0 mi SSE 10.4 mph - N/A   Clear
5:55 AM 71.8 °F - 64.4 °F 77% 29.82 in 10.0 mi SSE 11.5 mph 17.3 mph N/A   Clear
6:15 AM 71.6 °F - 64.0 °F 77% 29.82 in 10.0 mi SSE 8.1 mph - N/A   Clear
6:55 AM 70.7 °F - 64.0 °F 79% 29.84 in 10.0 mi SSE 5.8 mph - N/A   Clear
7:35 AM 72.0 °F - 64.4 °F 77% 29.85 in 10.0 mi SE 4.6 mph - N/A   Clear
8:15 AM 74.5 °F - 63.5 °F 68% 29.86 in 10.0 mi SSE 13.8 mph - N/A   Clear
8:35 AM 76.3 °F - 63.5 °F 64% 29.86 in 10.0 mi SSE 10.4 mph 17.3 mph N/A   Clear
8:55 AM 77.5 °F - 62.4 °F 59% 29.86 in 10.0 mi SSE 13.8 mph 23.0 mph N/A   Clear
9:15 AM 78.8 °F - 61.7 °F 56% 29.86 in 10.0 mi South 17.3 mph 21.9 mph N/A   Clear
9:55 AM 81.5 °F 82.2 °F 61.0 °F 50% 29.86 in 10.0 mi South 16.1 mph 20.7 mph N/A   Clear
10:15 AM 81.5 °F 82.1 °F 60.6 °F 49% 29.86 in 10.0 mi SSE 15.0 mph 20.7 mph N/A   Clear
10:35 AM 82.9 °F 83.3 °F 60.6 °F 47% 29.87 in 10.0 mi SSE 11.5 mph 18.4 mph N/A   Clear
11:15 AM 84.7 °F 84.2 °F 58.8 °F 41% 29.87 in 10.0 mi South 12.7 mph 18.4 mph N/A   Clear
11:35 AM 85.1 °F 84.6 °F 58.6 °F 41% 29.85 in 10.0 mi SSE 9.2 mph 16.1 mph N/A   Clear
11:55 AM 86.0 °F 85.0 °F 57.9 °F 38% 29.85 in 10.0 mi South 10.4 mph 17.3 mph N/A   Clear
12:15 PM 86.2 °F 85.4 °F 58.3 °F 39% 29.84 in 10.0 mi South 9.2 mph 19.6 mph N/A   Clear
12:35 PM 87.4 °F 86.3 °F 57.7 °F 36% 29.83 in 10.0 mi SSE 13.8 mph 21.9 mph N/A   Clear
12:55 PM 88.5 °F 87.3 °F 57.6 °F 35% 29.83 in 10.0 mi SSE 9.2 mph 18.4 mph N/A   Clear
1:15 PM 88.5 °F 87.3 °F 57.9 °F 35% 29.82 in 10.0 mi South 8.1 mph - N/A   Clear
1:35 PM 88.9 °F 87.7 °F 58.1 °F 35% 29.80 in 10.0 mi South 4.6 mph - N/A   Clear
1:55 PM 89.6 °F 88.4 °F 57.4 °F 34% 29.80 in 10.0 mi South 11.5 mph - N/A   Clear
2:35 PM 90.0 °F 88.3 °F 56.7 °F 32% 29.81 in 10.0 mi SSE 3.5 mph - N/A   Clear
2:55 PM 90.5 °F 88.7 °F 55.9 °F 31% 29.81 in 10.0 mi Calm Calm - N/A   Clear
3:35 PM 89.8 °F 87.9 °F 55.8 °F 31% 29.81 in 10.0 mi NW 3.5 mph - N/A   Clear
3:55 PM 89.1 °F 87.3 °F 55.4 °F 32% 29.81 in 10.0 mi Calm Calm - N/A   Clear
4:15 PM 90.1 °F 88.3 °F 55.6 °F 31% 29.82 in 10.0 mi Calm Calm - N/A   Clear
4:35 PM 89.6 °F 87.7 °F 55.6 °F 31% 29.82 in 10.0 mi North 4.6 mph - N/A   Clear
4:55 PM 89.1 °F 87.3 °F 55.2 °F 32% 29.83 in 10.0 mi NNW 6.9 mph - N/A   Clear
5:15 PM 88.5 °F 86.7 °F 55.4 °F 32% 29.84 in 10.0 mi North 4.6 mph - N/A   Clear
5:35 PM 86.7 °F 85.3 °F 55.8 °F 35% 29.85 in 10.0 mi North 3.5 mph - N/A   Clear
5:55 PM 84.9 °F 83.7 °F 55.9 °F 37% 29.86 in 10.0 mi North 6.9 mph - N/A   Clear
6:15 PM 83.3 °F 82.6 °F 56.8 °F 40% 29.87 in 10.0 mi North 4.6 mph - N/A   Clear
6:35 PM 81.7 °F 81.5 °F 57.4 °F 43% 29.89 in 10.0 mi NNW 4.6 mph - N/A   Clear
6:55 PM 80.1 °F 80.5 °F 57.6 °F 46% 29.91 in 10.0 mi NNW 4.6 mph - N/A   Clear
7:15 PM 78.1 °F - 57.7 °F 49% 29.92 in 10.0 mi NNW 5.8 mph - N/A   Clear
7:35 PM 78.8 °F - 59.0 °F 51% 29.94 in 10.0 mi North 6.9 mph - N/A   Clear
7:55 PM 78.8 °F - 59.9 °F 52% 29.95 in 10.0 mi North 6.9 mph - N/A   Clear
8:15 PM 77.9 °F - 60.3 °F 54% 29.97 in 10.0 mi NNW 6.9 mph - N/A   Clear
8:35 PM 77.5 °F - 60.8 °F 56% 29.98 in 10.0 mi North 6.9 mph - N/A   Clear
8:55 PM 78.1 °F - 61.2 °F 56% 29.99 in 10.0 mi North 5.8 mph - N/A   Clear
9:15 PM 79.3 °F - 61.3 °F 54% 30.01 in 10.0 mi North 8.1 mph - N/A   Mostly Cloudy
9:35 PM 79.5 °F - 61.3 °F 54% 30.02 in 10.0 mi North 8.1 mph - N/A   Overcast
9:55 PM 78.8 °F - 61.7 °F 56% 30.03 in 10.0 mi North 9.2 mph - N/A   Overcast
10:15 PM 77.9 °F - 61.7 °F 57% 30.04 in 10.0 mi North 8.1 mph - N/A   Overcast
10:35 PM 77.0 °F - 61.7 °F 59% 30.06 in 10.0 mi NNW 3.5 mph - N/A   Overcast
11:15 PM 76.1 °F - 62.1 °F 62% 30.07 in 10.0 mi NNW 6.9 mph - N/A   Overcast
11:35 PM 76.3 °F - 61.2 °F 59% 30.08 in 10.0 mi NNW 12.7 mph 23.0 mph N/A   Overcast
11:55 PM 75.4 °F - 54.0 °F 47% 30.09 in 10.0 mi North 16.1 mph 21.9 mph N/A   Overcast